THEMIS A

Last updated on Sun Dec 14 2025 00:02:41 GMT+0000 (Coordinated Universal Time)

1 30580U 07004A 25346.37168571 -.00000337 00000+0 63461-2 0 9990 2 30580 5.1438 135.4991 8440731 152.3490 309.3608 0.87835516 39635
UTC large
Height (km)
Speed (km/s)
/
Latitude / Longitude
Inclination (degrees)
Orbital Period (minutes)
Azimuth
Elevation
Range (km)
Doppler Factor

Next 0 passes for location: London (51.5072 / 0.1276)

Sorry there are no passes over London.